Regional Weather Roundup
Issued by NWS

Home | Current Version | Previous Version | Graphics & Text | Print | Product List | Glossary On
Versions: 1 2 3 4 5 6 7 8 9 10 11 12 13 14 15 16 17 18 19 20 21 22 23 24 25 26 27 28 29 30 31 32 33 34 35 36 37 38 39 40 41 42 43 44 45 46 47 48 49 50
000
ASUS45 KTFX 011819
RWRMT
MONTANA HOURLY WEATHER ROUNDUP
NATIONAL WEATHER SERVICE GREAT FALLS MT
1219 PM MDT WED OCT 1 2014

NOTE: "FAIR" INDICATES FEW OR NO CLOUDS BELOW 12000 FEET WITH NO
SIGNIFICANT WEATHER AND/OR OBSTRUCTIONS TO VISIBILITY.

* THESE STATIONS ARE NOT UNDER NWS QUALITY CONTROL. THEY DO NOT
   REPORT WEATHER SUCH AS PRECIPITATION OR FOG.

MTZ001>007-043-011900-
WEST OF THE DIVIDE
CITY           SKY/WX    TMP DP  RH WIND       PRES   REMARKS
KALISPELL      PTSUNNY   54  39  57 SW3       30.04F
MISSOULA       CLOUDY    52  37  57 W3        30.10F
BUTTE          PTSUNNY   46  27  48 W14G21    30.08F
MULLAN PASS    FOG       34  34 100 VRB3      30.10S VSB 3/4
* ESSEX        N/A       44  42  93 N/A        N/A
* LINCOLN      N/A       44  35  71 W3G9       N/A
* LOOKOUT PASS N/A       40  36  86 VRB4G10    N/A
* POLSON       N/A       51  35  54 S2G7       N/A
* RONAN APT    SUNNY     52  37  57 SE7        N/A
* SEELEY LAKE  N/A       47  35  63 W4G9       N/A
* THOMP F APT  SUNNY     40  28  62 W5G21      N/A   WCI  36
* YAAK HILL    N/A       48  40  74 S2         N/A
$$

MTZ008-052>055-011900-
SOUTHWEST MONTANA
CITY           SKY/WX    TMP DP  RH WIND       PRES   REMARKS
BOZEMAN        CLOUDY    46  36  68 CALM      30.07S
DILLON         PTCLDY    50  30  46 N/A       30.07S
W YELLOWSTONE  PTSUNNY   39  28  65 W5        30.06S WCI  35
* THREE FORKS  PTCLDY    52  52 100 W5         N/A
* BOULDER HILL N/A       45  24  44 SE1G6      N/A
* MONIDA PASS  N/A       39  26  60 NW17G24    N/A   WCI  30
* RAYNOLDS PAS N/A       38  38 100 NW7        N/A   WCI  33
* WHITEHALL    N/A       51  30  45 W9G19      N/A
* WISE RIVER   N/A       45  26  47 NW10G16    N/A
$$

MTZ009>010-012-014-046-048-049-054-011900-
EAST SLOPES AND CENTRAL MONTANA
CITY           SKY/WX    TMP DP  RH WIND       PRES   REMARKS
CUT BANK       SUNNY     57  36  46 W17G23    29.93F
GREAT FALLS    SUNNY     55  37  51 SW16G24   29.96F
HELENA         PTCLDY    55  34  45 W17G23    30.03S
MALMSTROM AFB  SUNNY     55  39  55 W12G22    29.97F
* CONRAD       SUNNY     57  36  46 SW9        N/A
* DEARBORN     N/A       53  36  53 S8G16      N/A
* EAST GLACIER N/A       47  35  63 W20G30     N/A
* MONARCH      N/A       45  27  49 SW12G17    N/A
* PENDROY      N/A       54  28  37 NW12G20    N/A
* ROGERS PASS  N/A       41  33  73 SE12G22    N/A
* SAINT MARY   N/A       48  35  61 SW11G21    N/A
* SWEET GRASS  N/A       54  34  47 W13G18     N/A
* WHITE SULPH  N/A       46  33  61 S6G12      N/A
$$

MTZ011-013-016-021-035-040-045-047-050-051-011900-
NORTH CENTRAL MONTANA
CITY           SKY/WX    TMP DP  RH WIND       PRES   REMARKS
HAVRE          SUNNY     57  37  47 W14       29.91F
LEWISTOWN      PTSUNNY   54  36  51 NW15G22   29.97S
* CHINOOK      SUNNY     55  37  51 W13G21    29.90F
* FORT BENTON  SUNNY     57  36  46 SW9G16    29.95F
* CHESTER      N/A       54  33  45 NW10G17    N/A
* DENTON       N/A       52  32  47 W9G17      N/A
* JUDITH GAP   N/A       50  30  46 NW17G22    N/A
* LOMA         N/A       56  40  55 W4G9       N/A
$$

MTZ017>020-022>027-061-062-011900-
NORTHEAST MONTANA
CITY           SKY/WX    TMP DP  RH WIND       PRES   REMARKS
GLASGOW        CLOUDY    54  43  67 NW18G28   29.83R
GLENDIVE       CLOUDY    54  46  74 NW23G28   29.83R
JORDAN         PTCLDY    57  39  51 NW24G32   29.87R
SIDNEY         CLOUDY    57  46  67 W14G20    29.79R
WOLF POINT     CLOUDY    55  45  69 NW21G31   29.80R
* BEAVER HILL  N/A       50  45  83 W20        N/A
* CIRCLE       N/A       52  48  86 SW13G19    N/A
* LINDSAY DVD  N/A       48  45  89 W19G26     N/A
* NAVAJO       N/A       48  46  93 NW22G29    N/A
$$

MTZ028>042-056>058-011900-
SOUTHCENTRAL AND SOUTHEAST MONTANA
CITY           SKY/WX    TMP DP  RH WIND       PRES   REMARKS
BAKER          CLOUDY    48  45  89 W17G26    29.85R
BILLINGS       PTSUNNY   55  32  42 W18G28    29.95F
LIVINGSTON     CLOUDY    46  36  68 W16       30.03R
MILES CITY     PTSUNNY   61  39  44 NW18G26   29.87F
* LAUREL APT   SUNNY     59  34  39 W13G20     N/A
* ROUNDUP APT  PTCLDY    55  32  42 W15G24     N/A
* ALZADA       N/A       49  42  77 W10G15     N/A
* HYSHAM       N/A       53  32  45 W12G20     N/A
* LAME DEER    N/A       49  36  61 NW10G21    N/A
* REED POINT   N/A       54  32  43 W19G30     N/A
* ROSCOE HILL  N/A       50  19  29 W7G16      N/A
$$

REGIONAL REPORTS...DAKOTAS
CITY           SKY/WX    TMP DP  RH WIND       PRES   REMARKS
WILLISTON      CLOUDY    55  48  77 W20G26    29.73R
DICKINSON      CLOUDY    54  46  74 W20       29.76R
BEACH          N/A       50  48  93 NW22G29   29.81R
CROSBY         CLOUDY    52  52 100 W17G24    29.68R
TIOGA          CLOUDY    52  52 100 W20G28    29.72R
WATFORD CITY   CLOUDY    54  48  80 NW20G25   29.72R
BISMARCK       PTCLDY    63  50  63 W24G32    29.73R
GRAND FORKS    CLOUDY    64  54  70 SW14G20   29.58F
FARGO          PTSUNNY   70  54  57 SW10      29.63F
BUFFALO SD     PTSUNNY   50  45  83 NW18      29.80R
RAPID CITY     CLOUDY    57  43  60 N22G30    29.87R
$$

REGIONAL REPORTS...WYOMING/IDAHO/WASHINGTON
CITY           SKY/WX    TMP DP  RH WIND       PRES   REMARKS
GILLETTE       CLOUDY    48  37  66 N15       29.95R
SHERIDAN       CLOUDY    50  39  66 NW15      29.97S
CODY           CLOUDY    45  37  74 S5        30.01R
YELLOWSTONE LA PTCLDY    36  28  73 CALM      30.08R
SALMON         PTSUNNY   48  34  59 E3        30.11F
MULLAN PASS    FOG       34  34 100 VRB3      30.10S VSB 3/4
SAND POINT     SUNNY     50  46  86 SW6       30.11S
SPOKANE        PTCLDY    52  37  57 SW13      30.12S
$$

REGIONAL REPORTS...ALBERTA
CITY           SKY/WX    TMP DP  RH WIND       PRES   REMARKS
CALGARY        SUNNY     54  32  43 S8        29.84F
LETHBRIDGE     SUNNY     57  36  46 W24G30    29.87F
MEDICINE HAT   SUNNY     55  39  55 SW9       29.88F
EDMONTON       PTCLDY    59  32  36 W12G18    29.77F
WATERTON GATE  N/A       52  32  47 SW20G30    N/A
CARDSTON       N/A       54  36  51 W13G21     N/A
MILK RIVER     N/A       57  34  42 W12G17     N/A
$$

REGIONAL REPORTS...SASKATCHEWAN
CITY           SKY/WX    TMP DP  RH WIND       PRES   REMARKS
SWIFT CURRENT  PTCLDY    52  43  72 NW21G28   29.78S
MOOSE JAW      CLOUDY    52  48  86 NW18G25   29.71R
REGINA         CLOUDY    50  46  86 NW20G29   29.66R
VAL MARIE      N/A       55  43  64 NW18G26    N/A
ASSINIBOIA     N/A       52  46  80 NW18G25    N/A
CORONACH       N/A       52  45  77 NW21G28    N/A

$$



USA.gov is the U.S. government's official web portal to all federal, state and local government web resources and services.